Year,Month,Day,Hour,Minute,Value (Times are PST for temperature in C)
2012,08,31,00,00,10.40
2012,08,31,00,01,10.30
2012,08,31,00,02,10.30
2012,08,31,00,03,10.30
2012,08,31,00,04,10.30
2012,08,31,00,05,10.30
2012,08,31,00,06,10.20
2012,08,31,00,07,10.20
2012,08,31,00,08,10.20
2012,08,31,00,09,10.20
2012,08,31,00,10,10.20
2012,08,31,00,11,10.10
2012,08,31,00,12,10.10
2012,08,31,00,13,10.10
2012,08,31,00,14,10.10
2012,08,31,00,15,10.00
2012,08,31,00,16,10.00
2012,08,31,00,17,10.00
2012,08,31,00,18,9.90
2012,08,31,00,19,9.90
2012,08,31,00,20,9.90
2012,08,31,00,21,9.90
2012,08,31,00,22,9.90
2012,08,31,00,23,9.90
2012,08,31,00,24,9.90
2012,08,31,00,25,9.90
2012,08,31,00,26,9.90
2012,08,31,00,27,9.90
2012,08,31,00,28,9.90
2012,08,31,00,29,9.90
2012,08,31,00,30,9.90
2012,08,31,00,31,9.90
2012,08,31,00,32,9.80
2012,08,31,00,33,9.80
2012,08,31,00,34,9.80
2012,08,31,00,35,9.80
2012,08,31,00,36,9.80
2012,08,31,00,37,9.70
2012,08,31,00,38,9.70
2012,08,31,00,39,9.60
2012,08,31,00,40,9.60
2012,08,31,00,41,9.60
2012,08,31,00,42,9.60
2012,08,31,00,43,9.60
2012,08,31,00,44,9.50
2012,08,31,00,45,9.50
2012,08,31,00,46,9.40
2012,08,31,00,47,9.40
2012,08,31,00,48,9.40
2012,08,31,00,49,9.30
2012,08,31,00,50,9.30
2012,08,31,00,51,9.30
2012,08,31,00,52,9.30
2012,08,31,00,53,9.30
2012,08,31,00,54,9.20
2012,08,31,00,55,9.20
2012,08,31,00,56,9.20
2012,08,31,00,57,9.20
2012,08,31,00,58,9.20
2012,08,31,00,59,9.20
2012,08,31,01,00,9.20
2012,08,31,01,01,9.20
2012,08,31,01,02,9.20
2012,08,31,01,03,9.20
2012,08,31,01,04,9.20
2012,08,31,01,05,9.10
2012,08,31,01,06,9.10
2012,08,31,01,07,9.10
2012,08,31,01,08,9.10
2012,08,31,01,09,9.10
2012,08,31,01,10,9.10
2012,08,31,01,11,9.10
2012,08,31,01,12,9.10
2012,08,31,01,13,9.10
2012,08,31,01,14,9.00
2012,08,31,01,15,9.10
2012,08,31,01,16,9.10
2012,08,31,01,17,9.10
2012,08,31,01,18,9.10
2012,08,31,01,19,9.10
2012,08,31,01,20,9.10
2012,08,31,01,21,9.10
2012,08,31,01,22,9.10
2012,08,31,01,23,9.10
2012,08,31,01,24,9.10
2012,08,31,01,25,9.10
2012,08,31,01,26,9.10
2012,08,31,01,27,9.10
2012,08,31,01,28,9.10
2012,08,31,01,29,9.10
2012,08,31,01,30,9.10
2012,08,31,01,31,9.10
2012,08,31,01,32,9.00
2012,08,31,01,33,9.00
2012,08,31,01,34,9.00
2012,08,31,01,35,9.00
2012,08,31,01,36,8.90
2012,08,31,01,37,8.90
2012,08,31,01,38,8.90
2012,08,31,01,39,8.90
2012,08,31,01,40,8.90
2012,08,31,01,41,8.90
2012,08,31,01,42,8.90
2012,08,31,01,43,8.90
2012,08,31,01,44,8.90
2012,08,31,01,45,8.90
2012,08,31,01,46,8.90
2012,08,31,01,47,8.80
2012,08,31,01,48,8.80
2012,08,31,01,49,8.80
2012,08,31,01,50,8.80
2012,08,31,01,51,8.80
2012,08,31,01,52,8.80
2012,08,31,01,53,8.80
2012,08,31,01,54,8.70
2012,08,31,01,55,8.70
2012,08,31,01,56,8.70
2012,08,31,01,57,8.70
2012,08,31,01,58,8.70
2012,08,31,01,59,8.70
2012,08,31,02,00,8.70
2012,08,31,02,01,8.60
2012,08,31,02,02,8.60
2012,08,31,02,03,8.60
2012,08,31,02,04,8.60
2012,08,31,02,05,8.60
2012,08,31,02,06,8.60
2012,08,31,02,07,8.60
2012,08,31,02,08,8.70
2012,08,31,02,09,8.70
2012,08,31,02,10,8.70
2012,08,31,02,11,8.70
2012,08,31,02,12,8.70
2012,08,31,02,13,8.70
2012,08,31,02,14,8.70
2012,08,31,02,15,8.70
2012,08,31,02,16,8.70
2012,08,31,02,17,8.70
2012,08,31,02,18,8.70
2012,08,31,02,19,8.70
2012,08,31,02,20,8.70
2012,08,31,02,21,8.70
2012,08,31,02,22,8.70
2012,08,31,02,23,8.70
2012,08,31,02,24,8.70
2012,08,31,02,25,8.70
2012,08,31,02,26,8.70
2012,08,31,02,27,8.70
2012,08,31,02,28,8.70
2012,08,31,02,29,8.70
2012,08,31,02,30,8.70
2012,08,31,02,31,8.70
2012,08,31,02,32,8.70
2012,08,31,02,33,8.70
2012,08,31,02,34,8.70
2012,08,31,02,35,8.70
2012,08,31,02,36,8.60
2012,08,31,02,37,8.60
2012,08,31,02,38,8.60
2012,08,31,02,39,8.60
2012,08,31,02,40,8.60
2012,08,31,02,41,8.60
2012,08,31,02,42,8.60
2012,08,31,02,43,8.60
2012,08,31,02,44,8.60
2012,08,31,02,45,8.60
2012,08,31,02,46,8.60
2012,08,31,02,47,8.60
2012,08,31,02,48,8.60
2012,08,31,02,49,8.60
2012,08,31,02,50,8.60
2012,08,31,02,51,8.60
2012,08,31,02,52,8.60
2012,08,31,02,53,8.60
2012,08,31,02,54,8.60
2012,08,31,02,55,8.60
2012,08,31,02,56,8.60
2012,08,31,02,57,8.50
2012,08,31,02,58,8.50
2012,08,31,02,59,8.50
2012,08,31,03,00,8.50
2012,08,31,03,01,8.50
2012,08,31,03,02,8.40
2012,08,31,03,03,8.40
2012,08,31,03,04,8.40
2012,08,31,03,05,8.40
2012,08,31,03,06,8.30
2012,08,31,03,07,8.30
2012,08,31,03,08,8.30
2012,08,31,03,09,8.20
2012,08,31,03,10,8.20
2012,08,31,03,11,8.20
2012,08,31,03,12,8.10
2012,08,31,03,13,8.10
2012,08,31,03,14,8.10
2012,08,31,03,15,8.10
2012,08,31,03,16,8.10
2012,08,31,03,17,8.00
2012,08,31,03,18,8.00
2012,08,31,03,19,8.00
2012,08,31,03,20,8.00
2012,08,31,03,21,8.00
2012,08,31,03,22,8.00
2012,08,31,03,23,7.90
2012,08,31,03,24,7.90
2012,08,31,03,25,7.90
2012,08,31,03,26,7.90
2012,08,31,03,27,7.80
2012,08,31,03,28,7.80
2012,08,31,03,29,7.80
2012,08,31,03,30,7.80
2012,08,31,03,31,7.80
2012,08,31,03,32,7.80
2012,08,31,03,33,7.80
2012,08,31,03,34,7.70
2012,08,31,03,35,7.70
2012,08,31,03,36,7.70
2012,08,31,03,37,7.70
2012,08,31,03,38,7.70
2012,08,31,03,39,7.70
2012,08,31,03,40,7.60
2012,08,31,03,41,7.60
2012,08,31,03,42,7.60
2012,08,31,03,43,7.60
2012,08,31,03,44,7.60
2012,08,31,03,45,7.50
2012,08,31,03,46,7.50
2012,08,31,03,47,7.50
2012,08,31,03,48,7.50
2012,08,31,03,49,7.50
2012,08,31,03,50,7.50
2012,08,31,03,51,7.50
2012,08,31,03,52,7.50
2012,08,31,03,53,7.50
2012,08,31,03,54,7.50
2012,08,31,03,55,7.50
2012,08,31,03,56,7.50
2012,08,31,03,57,7.60
2012,08,31,03,58,7.60
2012,08,31,03,59,7.60
2012,08,31,04,00,7.60
2012,08,31,04,01,7.60
2012,08,31,04,02,7.60
2012,08,31,04,03,7.60
2012,08,31,04,04,7.50
2012,08,31,04,05,7.50
2012,08,31,04,06,7.50
2012,08,31,04,07,7.50
2012,08,31,04,08,7.50
2012,08,31,04,09,7.50
2012,08,31,04,10,7.50
2012,08,31,04,11,7.50
2012,08,31,04,12,7.40
2012,08,31,04,13,7.40
2012,08,31,04,14,7.40
2012,08,31,04,15,7.40
2012,08,31,04,16,7.40
2012,08,31,04,17,7.30
2012,08,31,04,18,7.30
2012,08,31,04,19,7.30
2012,08,31,04,20,7.30
2012,08,31,04,21,7.30
2012,08,31,04,22,7.30
2012,08,31,04,23,7.20
2012,08,31,04,24,7.20
2012,08,31,04,25,7.20
2012,08,31,04,26,7.20
2012,08,31,04,27,7.20
2012,08,31,04,28,7.30
2012,08,31,04,29,7.30
2012,08,31,04,30,7.30
2012,08,31,04,31,7.40
2012,08,31,04,32,7.40
2012,08,31,04,33,7.50
2012,08,31,04,34,7.50
2012,08,31,04,35,7.50
2012,08,31,04,36,7.60
2012,08,31,04,37,7.60
2012,08,31,04,38,7.60
2012,08,31,04,39,7.60
2012,08,31,04,40,7.60
2012,08,31,04,41,7.60
2012,08,31,04,42,7.60
2012,08,31,04,43,7.60
2012,08,31,04,44,7.60
2012,08,31,04,45,7.60
2012,08,31,04,46,7.60
2012,08,31,04,47,7.60
2012,08,31,04,48,7.60
2012,08,31,04,49,7.50
2012,08,31,04,50,7.50
2012,08,31,04,51,7.50
2012,08,31,04,52,7.50
2012,08,31,04,53,7.40
2012,08,31,04,54,7.40
2012,08,31,04,55,7.40
2012,08,31,04,56,7.40
2012,08,31,04,57,7.30
2012,08,31,04,58,7.30
2012,08,31,04,59,7.30
2012,08,31,05,00,7.30
2012,08,31,05,01,7.20
2012,08,31,05,02,7.20
2012,08,31,05,03,7.20
2012,08,31,05,04,7.20
2012,08,31,05,05,7.20
2012,08,31,05,06,7.20
2012,08,31,05,07,7.20
2012,08,31,05,08,7.20
2012,08,31,05,09,7.20
2012,08,31,05,10,7.20
2012,08,31,05,11,7.20
2012,08,31,05,12,7.20
2012,08,31,05,13,7.20
2012,08,31,05,14,7.20
2012,08,31,05,15,7.20
2012,08,31,05,16,7.30
2012,08,31,05,17,7.30
2012,08,31,05,18,7.30
2012,08,31,05,19,7.30
2012,08,31,05,20,7.30
2012,08,31,05,21,7.30
2012,08,31,05,22,7.30
2012,08,31,05,23,7.40
2012,08,31,05,24,7.40
2012,08,31,05,25,7.50
2012,08,31,05,26,7.50
2012,08,31,05,27,7.50
2012,08,31,05,28,7.50
2012,08,31,05,29,7.50
2012,08,31,05,30,7.50
2012,08,31,05,31,7.50
2012,08,31,05,32,7.40
2012,08,31,05,33,7.50
2012,08,31,05,34,7.40
2012,08,31,05,35,7.40
2012,08,31,05,36,7.40
2012,08,31,05,37,7.40
2012,08,31,05,38,7.40
2012,08,31,05,39,7.40
2012,08,31,05,40,7.40
2012,08,31,05,41,7.30
2012,08,31,05,42,7.30
2012,08,31,05,43,7.30
2012,08,31,05,44,7.30
2012,08,31,05,45,7.30
2012,08,31,05,46,7.30
2012,08,31,05,47,7.30
2012,08,31,05,48,7.20
2012,08,31,05,49,7.20
2012,08,31,05,50,7.20
2012,08,31,05,51,7.20
2012,08,31,05,52,7.20
2012,08,31,05,53,7.20
2012,08,31,05,54,7.20
2012,08,31,05,55,7.20
2012,08,31,05,56,7.20
2012,08,31,05,57,7.20
2012,08,31,05,58,7.20
2012,08,31,05,59,7.20
2012,08,31,06,00,7.20
2012,08,31,06,01,7.20
2012,08,31,06,02,7.20
2012,08,31,06,03,7.20
2012,08,31,06,04,7.20
2012,08,31,06,05,7.20
2012,08,31,06,06,7.20
2012,08,31,06,07,7.30
2012,08,31,06,08,7.30
2012,08,31,06,09,7.30
2012,08,31,06,10,7.30
2012,08,31,06,11,7.30
2012,08,31,06,12,7.30
2012,08,31,06,13,7.30
2012,08,31,06,14,7.30
2012,08,31,06,15,7.30
2012,08,31,06,16,7.30
2012,08,31,06,17,7.20
2012,08,31,06,18,7.20
2012,08,31,06,19,7.20
2012,08,31,06,20,7.20
2012,08,31,06,21,7.10
2012,08,31,06,22,7.10
2012,08,31,06,23,7.00
2012,08,31,06,24,6.90
2012,08,31,06,25,6.90
2012,08,31,06,26,6.80
2012,08,31,06,27,6.80
2012,08,31,06,28,6.80
2012,08,31,06,29,6.80
2012,08,31,06,30,6.80
2012,08,31,06,31,6.70
2012,08,31,06,32,6.70
2012,08,31,06,33,6.70
2012,08,31,06,34,6.70
2012,08,31,06,35,6.70
2012,08,31,06,36,6.70
2012,08,31,06,37,6.70
2012,08,31,06,38,6.70
2012,08,31,06,39,6.70
2012,08,31,06,40,6.70
2012,08,31,06,41,6.70
2012,08,31,06,42,6.70
2012,08,31,06,43,6.80
2012,08,31,06,44,6.80
2012,08,31,06,45,6.90
2012,08,31,06,46,6.90
2012,08,31,06,47,6.90
2012,08,31,06,48,6.90
2012,08,31,06,49,6.90
2012,08,31,06,50,7.00
2012,08,31,06,51,6.90
2012,08,31,06,52,6.90
2012,08,31,06,53,6.90
2012,08,31,06,54,6.90
2012,08,31,06,55,6.90
2012,08,31,06,56,6.90
2012,08,31,06,57,6.90
2012,08,31,06,58,6.90
2012,08,31,06,59,6.90
2012,08,31,07,00,6.90
2012,08,31,07,01,6.90
2012,08,31,07,02,6.90
2012,08,31,07,03,6.90
2012,08,31,07,04,6.90
2012,08,31,07,05,6.80
2012,08,31,07,06,6.80
2012,08,31,07,07,6.90
2012,08,31,07,08,6.90
2012,08,31,07,09,6.90
2012,08,31,07,10,6.90
2012,08,31,07,11,6.90
2012,08,31,07,12,6.90
2012,08,31,07,13,7.00
2012,08,31,07,14,7.00
2012,08,31,07,15,7.10
2012,08,31,07,16,7.10
2012,08,31,07,17,7.20
2012,08,31,07,18,7.20
2012,08,31,07,19,7.20
2012,08,31,07,20,7.30
2012,08,31,07,21,7.40
2012,08,31,07,22,7.50
2012,08,31,07,23,7.60
2012,08,31,07,24,7.70
2012,08,31,07,25,7.80
2012,08,31,07,26,8.00
2012,08,31,07,27,8.10
2012,08,31,07,28,8.20
2012,08,31,07,29,8.20
2012,08,31,07,30,8.20
2012,08,31,07,31,8.30
2012,08,31,07,32,8.30
2012,08,31,07,33,8.30
2012,08,31,07,34,8.40
2012,08,31,07,35,8.40
2012,08,31,07,36,8.50
2012,08,31,07,37,8.50
2012,08,31,07,38,8.60
2012,08,31,07,39,8.60
2012,08,31,07,40,8.70
2012,08,31,07,41,8.70
2012,08,31,07,42,8.70
2012,08,31,07,43,8.80
2012,08,31,07,44,8.80
2012,08,31,07,45,8.90
2012,08,31,07,46,8.90
2012,08,31,07,47,9.00
2012,08,31,07,48,9.10
2012,08,31,07,49,9.10
2012,08,31,07,50,9.20
2012,08,31,07,51,9.30
2012,08,31,07,52,9.40
2012,08,31,07,53,9.40
2012,08,31,07,54,9.50
2012,08,31,07,55,9.60
2012,08,31,07,56,9.60
2012,08,31,07,57,9.70
2012,08,31,07,58,9.70
2012,08,31,07,59,9.80
2012,08,31,08,00,9.80
2012,08,31,08,01,9.80
2012,08,31,08,02,9.90
2012,08,31,08,03,9.90
2012,08,31,08,04,10.00
2012,08,31,08,05,10.00
2012,08,31,08,06,10.10
2012,08,31,08,07,10.10
2012,08,31,08,08,10.20
2012,08,31,08,09,10.20
2012,08,31,08,10,10.20
2012,08,31,08,11,10.20
2012,08,31,08,12,10.20
2012,08,31,08,13,10.30
2012,08,31,08,14,10.30
2012,08,31,08,15,10.30
2012,08,31,08,16,10.40
2012,08,31,08,17,10.40
2012,08,31,08,18,10.40
2012,08,31,08,19,10.40
2012,08,31,08,20,10.50
2012,08,31,08,21,10.50
2012,08,31,08,22,10.60
2012,08,31,08,23,10.60
2012,08,31,08,24,10.70
2012,08,31,08,25,10.70
2012,08,31,08,26,10.80
2012,08,31,08,27,10.80
2012,08,31,08,28,10.80
2012,08,31,08,29,10.90
2012,08,31,08,30,10.90
2012,08,31,08,31,11.00
2012,08,31,08,32,11.00
2012,08,31,08,33,11.10
2012,08,31,08,34,11.10
2012,08,31,08,35,11.10
2012,08,31,08,36,11.20
2012,08,31,08,37,11.20
2012,08,31,08,38,11.20
2012,08,31,08,39,11.20
2012,08,31,08,40,11.20
2012,08,31,08,41,11.20
2012,08,31,08,42,11.30
2012,08,31,08,43,11.30
2012,08,31,08,44,11.40
2012,08,31,08,45,11.40
2012,08,31,08,46,11.50
2012,08,31,08,47,11.60
2012,08,31,08,48,11.60
2012,08,31,08,49,11.70
2012,08,31,08,50,11.70
2012,08,31,08,51,11.80
2012,08,31,08,52,11.80
2012,08,31,08,53,11.90
2012,08,31,08,54,11.90
2012,08,31,08,55,11.90
2012,08,31,08,56,12.00
2012,08,31,08,57,12.10
2012,08,31,08,58,12.20
2012,08,31,08,59,12.20
2012,08,31,09,00,12.30
2012,08,31,09,01,12.40
2012,08,31,09,02,12.40
2012,08,31,09,03,12.50
2012,08,31,09,04,12.60
2012,08,31,09,05,12.60
2012,08,31,09,06,12.70
2012,08,31,09,07,12.70
2012,08,31,09,08,12.80
2012,08,31,09,09,12.80
2012,08,31,09,10,12.90
2012,08,31,09,11,13.00
2012,08,31,09,12,13.10
2012,08,31,09,13,13.20
2012,08,31,09,14,13.20
2012,08,31,09,15,13.40
2012,08,31,09,16,13.50
2012,08,31,09,17,13.60
2012,08,31,09,18,13.60
2012,08,31,09,19,13.70
2012,08,31,09,20,13.80
2012,08,31,09,21,13.90
2012,08,31,09,22,13.90
2012,08,31,09,23,14.00
2012,08,31,09,24,14.10
2012,08,31,09,25,14.10
2012,08,31,09,26,14.20
2012,08,31,09,27,14.30
2012,08,31,09,28,14.40
2012,08,31,09,29,14.40
2012,08,31,09,30,14.60
2012,08,31,09,31,14.70
2012,08,31,09,32,14.90
2012,08,31,09,33,15.00
2012,08,31,09,34,15.00
2012,08,31,09,35,15.20
2012,08,31,09,36,15.30
2012,08,31,09,37,15.40
2012,08,31,09,38,15.60
2012,08,31,09,39,15.70
2012,08,31,09,40,15.80
2012,08,31,09,41,15.80
2012,08,31,09,42,15.90
2012,08,31,09,43,15.90
2012,08,31,09,44,15.90
2012,08,31,09,45,15.90
2012,08,31,09,46,15.90
2012,08,31,09,47,16.00
2012,08,31,09,48,16.00
2012,08,31,09,49,16.00
2012,08,31,09,50,16.00
2012,08,31,09,51,16.10
2012,08,31,09,52,16.10
2012,08,31,09,53,16.10
2012,08,31,09,54,16.20
2012,08,31,09,55,16.20
2012,08,31,09,56,16.30
2012,08,31,09,57,16.30
2012,08,31,09,58,16.30
2012,08,31,09,59,16.30
2012,08,31,10,00,16.30
2012,08,31,10,01,16.40
2012,08,31,10,02,16.40
2012,08,31,10,03,16.40
2012,08,31,10,04,16.40
2012,08,31,10,05,16.50
2012,08,31,10,06,16.60
2012,08,31,10,07,16.60
2012,08,31,10,08,16.70
2012,08,31,10,09,16.80
2012,08,31,10,10,16.80
2012,08,31,10,11,16.80
2012,08,31,10,12,16.80
2012,08,31,10,13,16.80
2012,08,31,10,14,16.80
2012,08,31,10,15,16.80
2012,08,31,10,16,16.80
2012,08,31,10,17,16.90
2012,08,31,10,18,17.00
2012,08,31,10,19,17.00
2012,08,31,10,20,17.10
2012,08,31,10,21,17.10
2012,08,31,10,22,17.20
2012,08,31,10,23,17.20
2012,08,31,10,24,17.30
2012,08,31,10,25,17.30
2012,08,31,10,26,17.30
2012,08,31,10,27,17.30
2012,08,31,10,28,17.40
2012,08,31,10,29,17.40
2012,08,31,10,30,17.40
2012,08,31,10,31,17.50
2012,08,31,10,32,17.60
2012,08,31,10,33,17.60
2012,08,31,10,34,17.60
2012,08,31,10,35,17.60
2012,08,31,10,36,17.60
2012,08,31,10,37,17.60
2012,08,31,10,38,17.50
2012,08,31,10,39,17.50
2012,08,31,10,40,17.50
2012,08,31,10,41,17.50
2012,08,31,10,42,17.60
2012,08,31,10,43,17.70
2012,08,31,10,44,17.70
2012,08,31,10,45,17.80
2012,08,31,10,46,17.80
2012,08,31,10,47,17.80
2012,08,31,10,48,17.90
2012,08,31,10,49,17.90
2012,08,31,10,50,17.90
2012,08,31,10,51,17.90
2012,08,31,10,52,17.90
2012,08,31,10,53,17.80
2012,08,31,10,54,17.90
2012,08,31,10,55,17.90
2012,08,31,10,56,17.80
2012,08,31,10,57,17.80
2012,08,31,10,58,17.80
2012,08,31,10,59,17.70
2012,08,31,11,00,17.70
2012,08,31,11,01,17.70
2012,08,31,11,02,17.60
2012,08,31,11,03,17.60
2012,08,31,11,04,17.70
2012,08,31,11,05,17.90
2012,08,31,11,06,17.90
2012,08,31,11,07,18.00
2012,08,31,11,08,18.20
2012,08,31,11,09,18.20
2012,08,31,11,10,18.20
2012,08,31,11,11,18.20
2012,08,31,11,12,18.30
2012,08,31,11,13,18.50
2012,08,31,11,14,18.50
2012,08,31,11,15,18.50
2012,08,31,11,16,18.50
2012,08,31,11,17,18.60
2012,08,31,11,18,18.60
2012,08,31,11,19,18.50
2012,08,31,11,20,18.40
2012,08,31,11,21,18.30
2012,08,31,11,22,18.20
2012,08,31,11,23,18.20
2012,08,31,11,24,18.20
2012,08,31,11,25,18.10
2012,08,31,11,26,18.10
2012,08,31,11,27,18.10
2012,08,31,11,28,18.20
2012,08,31,11,29,18.10
2012,08,31,11,30,18.10
2012,08,31,11,31,18.10
2012,08,31,11,32,18.10
2012,08,31,11,33,18.10
2012,08,31,11,34,18.20
2012,08,31,11,35,18.20
2012,08,31,11,36,18.10
2012,08,31,11,37,18.10
2012,08,31,11,38,18.20
2012,08,31,11,39,18.20
2012,08,31,11,40,18.30
2012,08,31,11,41,18.30
2012,08,31,11,42,18.40
2012,08,31,11,43,18.50
2012,08,31,11,44,18.50
2012,08,31,11,45,18.40
2012,08,31,11,46,18.30
2012,08,31,11,47,18.30
2012,08,31,11,48,18.30
2012,08,31,11,49,18.20
2012,08,31,11,50,18.10
2012,08,31,11,51,18.10
2012,08,31,11,52,18.10
2012,08,31,11,53,18.10
2012,08,31,11,54,18.10
2012,08,31,11,55,18.20
2012,08,31,11,56,18.20
2012,08,31,11,57,18.20
2012,08,31,11,58,18.20
2012,08,31,11,59,18.20
2012,08,31,12,00,18.30
2012,08,31,12,01,18.30
2012,08,31,12,02,18.30
2012,08,31,12,03,18.30
2012,08,31,12,04,18.30
2012,08,31,12,05,18.40
2012,08,31,12,06,18.40
2012,08,31,12,07,18.50
2012,08,31,12,08,18.60
2012,08,31,12,09,18.70
2012,08,31,12,10,18.80
2012,08,31,12,11,18.90
2012,08,31,12,12,18.80
2012,08,31,12,13,18.80
2012,08,31,12,14,18.70
2012,08,31,12,15,18.60
2012,08,31,12,16,18.50
2012,08,31,12,17,18.40
2012,08,31,12,18,18.40
2012,08,31,12,19,18.40
2012,08,31,12,20,18.40
2012,08,31,12,21,18.50
2012,08,31,12,22,18.50
2012,08,31,12,23,18.50
2012,08,31,12,24,18.70
2012,08,31,12,25,18.80
2012,08,31,12,26,18.90
2012,08,31,12,27,18.90
2012,08,31,12,28,19.00
2012,08,31,12,29,19.00
2012,08,31,12,30,19.00
2012,08,31,12,31,19.10
2012,08,31,12,32,19.10
2012,08,31,12,33,19.00
2012,08,31,12,34,19.00
2012,08,31,12,35,19.00
2012,08,31,12,36,18.90
2012,08,31,12,37,18.90
2012,08,31,12,38,18.90
2012,08,31,12,39,18.90
2012,08,31,12,40,19.00
2012,08,31,12,41,18.90
2012,08,31,12,42,18.90
2012,08,31,12,43,18.80
2012,08,31,12,44,18.90
2012,08,31,12,45,18.90
2012,08,31,12,46,19.00
2012,08,31,12,47,19.10
2012,08,31,12,48,19.20
2012,08,31,12,49,19.40
2012,08,31,12,50,19.60
2012,08,31,12,51,19.60
2012,08,31,12,52,19.70
2012,08,31,12,53,19.50
2012,08,31,12,54,19.50
2012,08,31,12,55,19.30
2012,08,31,12,56,19.30
2012,08,31,12,57,19.30
2012,08,31,12,58,19.30
2012,08,31,12,59,19.30
2012,08,31,13,00,19.30
2012,08,31,13,01,19.40
2012,08,31,13,02,19.40
2012,08,31,13,03,19.40
2012,08,31,13,04,19.30
2012,08,31,13,05,19.10
2012,08,31,13,06,19.00
2012,08,31,13,07,19.00
2012,08,31,13,08,19.10
2012,08,31,13,09,19.20
2012,08,31,13,10,19.30
2012,08,31,13,11,19.40
2012,08,31,13,12,19.60
2012,08,31,13,13,19.80
2012,08,31,13,14,19.80
2012,08,31,13,15,19.80
2012,08,31,13,16,19.80
2012,08,31,13,17,19.80
2012,08,31,13,18,19.70
2012,08,31,13,19,19.60
2012,08,31,13,20,19.40
2012,08,31,13,21,19.40
2012,08,31,13,22,19.50
2012,08,31,13,23,19.50
2012,08,31,13,24,19.50
2012,08,31,13,25,19.40
2012,08,31,13,26,19.50
2012,08,31,13,27,19.50
2012,08,31,13,28,19.50
2012,08,31,13,29,19.50
2012,08,31,13,30,19.40
2012,08,31,13,31,19.50
2012,08,31,13,32,19.60
2012,08,31,13,33,19.50
2012,08,31,13,34,19.50
2012,08,31,13,35,19.50
2012,08,31,13,36,19.70
2012,08,31,13,37,19.60
2012,08,31,13,38,19.50
2012,08,31,13,39,19.30
2012,08,31,13,40,19.10
2012,08,31,13,41,19.00
2012,08,31,13,42,18.90
2012,08,31,13,43,19.00
2012,08,31,13,44,19.00
2012,08,31,13,45,19.10
2012,08,31,13,46,19.10
2012,08,31,13,47,19.10
2012,08,31,13,48,19.20
2012,08,31,13,49,19.20
2012,08,31,13,50,19.10
2012,08,31,13,51,19.00
2012,08,31,13,52,18.90
2012,08,31,13,53,18.80
2012,08,31,13,54,18.80
2012,08,31,13,55,18.80
2012,08,31,13,56,18.90
2012,08,31,13,57,19.00
2012,08,31,13,58,19.00
2012,08,31,13,59,19.00
2012,08,31,14,00,19.00
2012,08,31,14,01,18.90
2012,08,31,14,02,18.90
2012,08,31,14,03,18.90
2012,08,31,14,04,18.90
2012,08,31,14,05,19.00
2012,08,31,14,06,19.20
2012,08,31,14,07,19.30
2012,08,31,14,08,19.30
2012,08,31,14,09,19.40
2012,08,31,14,10,19.40
2012,08,31,14,11,19.30
2012,08,31,14,12,19.30
2012,08,31,14,13,19.20
2012,08,31,14,14,19.20
2012,08,31,14,15,19.00
2012,08,31,14,16,18.90
2012,08,31,14,17,18.90
2012,08,31,14,18,18.80
2012,08,31,14,19,18.80
2012,08,31,14,20,18.80
2012,08,31,14,21,18.70
2012,08,31,14,22,18.70
2012,08,31,14,23,18.60
2012,08,31,14,24,18.70
2012,08,31,14,25,18.70
2012,08,31,14,26,18.70
2012,08,31,14,27,18.80
2012,08,31,14,28,18.80
2012,08,31,14,29,18.90
2012,08,31,14,30,18.90
2012,08,31,14,31,18.90
2012,08,31,14,32,18.90
2012,08,31,14,33,18.90
2012,08,31,14,34,18.90
2012,08,31,14,35,18.90
2012,08,31,14,36,18.90
2012,08,31,14,37,19.00
2012,08,31,14,38,19.10
2012,08,31,14,39,19.10
2012,08,31,14,40,19.20
2012,08,31,14,41,19.20
2012,08,31,14,42,19.20
2012,08,31,14,43,19.20
2012,08,31,14,44,19.20
2012,08,31,14,45,19.30
2012,08,31,14,46,19.30
2012,08,31,14,47,19.50
2012,08,31,14,48,19.40
2012,08,31,14,49,19.30
2012,08,31,14,50,19.30
2012,08,31,14,51,19.20
2012,08,31,14,52,19.20
2012,08,31,14,53,19.10
2012,08,31,14,54,19.10
2012,08,31,14,55,19.10
2012,08,31,14,56,19.20
2012,08,31,14,57,19.10
2012,08,31,14,58,19.00
2012,08,31,14,59,19.00
2012,08,31,15,00,19.00
2012,08,31,15,01,19.00
2012,08,31,15,02,18.90
2012,08,31,15,03,19.00
2012,08,31,15,04,19.10
2012,08,31,15,05,19.30
2012,08,31,15,06,19.30
2012,08,31,15,07,19.30
2012,08,31,15,08,19.30
2012,08,31,15,09,19.30
2012,08,31,15,10,19.20
2012,08,31,15,11,19.20
2012,08,31,15,12,19.20
2012,08,31,15,13,19.10
2012,08,31,15,14,19.10
2012,08,31,15,15,19.20
2012,08,31,15,16,19.20
2012,08,31,15,17,19.20
2012,08,31,15,18,19.10
2012,08,31,15,19,19.10
2012,08,31,15,20,19.00
2012,08,31,15,21,19.00
2012,08,31,15,22,19.00
2012,08,31,15,23,19.00
2012,08,31,15,24,19.10
2012,08,31,15,25,19.30
2012,08,31,15,26,19.50
2012,08,31,15,27,19.60
2012,08,31,15,28,19.50
2012,08,31,15,29,19.50
2012,08,31,15,30,19.50
2012,08,31,15,31,19.50
2012,08,31,15,32,19.60
2012,08,31,15,33,19.60
2012,08,31,15,34,19.50
2012,08,31,15,35,19.50
2012,08,31,15,36,19.50
2012,08,31,15,37,19.50
2012,08,31,15,38,19.60
2012,08,31,15,39,19.70
2012,08,31,15,40,19.90
2012,08,31,15,41,19.90
2012,08,31,15,42,19.90
2012,08,31,15,43,19.90
2012,08,31,15,44,19.80
2012,08,31,15,45,19.80
2012,08,31,15,46,19.80
2012,08,31,15,47,19.80
2012,08,31,15,48,19.90
2012,08,31,15,49,19.90
2012,08,31,15,50,19.90
2012,08,31,15,51,19.80
2012,08,31,15,52,19.70
2012,08,31,15,53,19.60
2012,08,31,15,54,19.50
2012,08,31,15,55,19.50
2012,08,31,15,56,19.60
2012,08,31,15,57,19.70
2012,08,31,15,58,19.70
2012,08,31,15,59,19.70
2012,08,31,16,00,19.60
2012,08,31,16,01,19.60
2012,08,31,16,02,19.70
2012,08,31,16,03,19.70
2012,08,31,16,04,19.70
2012,08,31,16,05,19.70
2012,08,31,16,06,19.80
2012,08,31,16,07,19.90
2012,08,31,16,08,19.80
2012,08,31,16,09,19.70
2012,08,31,16,10,19.70
2012,08,31,16,11,19.70
2012,08,31,16,12,19.60
2012,08,31,16,13,19.60
2012,08,31,16,14,19.70
2012,08,31,16,15,19.80
2012,08,31,16,16,19.70
2012,08,31,16,17,19.60
2012,08,31,16,18,19.50
2012,08,31,16,19,19.40
2012,08,31,16,20,19.40
2012,08,31,16,21,19.40
2012,08,31,16,22,19.40
2012,08,31,16,23,19.40
2012,08,31,16,24,19.40
2012,08,31,16,25,19.50
2012,08,31,16,26,19.50
2012,08,31,16,27,19.50
2012,08,31,16,28,19.60
2012,08,31,16,29,19.60
2012,08,31,16,30,19.60
2012,08,31,16,31,19.60
2012,08,31,16,32,19.50
2012,08,31,16,33,19.50
2012,08,31,16,34,19.50
2012,08,31,16,35,19.50
2012,08,31,16,36,19.50
2012,08,31,16,37,19.60
2012,08,31,16,38,19.60
2012,08,31,16,39,19.60
2012,08,31,16,40,19.60
2012,08,31,16,41,19.70
2012,08,31,16,42,19.80
2012,08,31,16,43,19.80
2012,08,31,16,44,19.70
2012,08,31,16,45,19.70
2012,08,31,16,46,19.70
2012,08,31,16,47,19.70
2012,08,31,16,48,19.60
2012,08,31,16,49,19.50
2012,08,31,16,50,19.50
2012,08,31,16,51,19.50
2012,08,31,16,52,19.60
2012,08,31,16,53,19.80
2012,08,31,16,54,19.80
2012,08,31,16,55,19.80
2012,08,31,16,56,19.80
2012,08,31,16,57,19.80
2012,08,31,16,58,19.60
2012,08,31,16,59,19.70
2012,08,31,17,00,19.60
2012,08,31,17,01,19.50
2012,08,31,17,02,19.40
2012,08,31,17,03,19.40
2012,08,31,17,04,19.30
2012,08,31,17,05,19.40
2012,08,31,17,06,19.50
2012,08,31,17,07,19.60
2012,08,31,17,08,19.60
2012,08,31,17,09,19.60
2012,08,31,17,10,19.60
2012,08,31,17,11,19.50
2012,08,31,17,12,19.60
2012,08,31,17,13,19.50
2012,08,31,17,14,19.40
2012,08,31,17,15,19.30
2012,08,31,17,16,19.30
2012,08,31,17,17,19.30
2012,08,31,17,18,19.30
2012,08,31,17,19,19.30
2012,08,31,17,20,19.30
2012,08,31,17,21,19.40
2012,08,31,17,22,19.40
2012,08,31,17,23,19.30
2012,08,31,17,24,19.30
2012,08,31,17,25,19.30
2012,08,31,17,26,19.30
2012,08,31,17,27,19.40
2012,08,31,17,28,19.40
2012,08,31,17,29,19.50
2012,08,31,17,30,19.50
2012,08,31,17,31,19.60
2012,08,31,17,32,19.60
2012,08,31,17,33,19.50
2012,08,31,17,34,19.50
2012,08,31,17,35,19.60
2012,08,31,17,36,19.50
2012,08,31,17,37,19.40
2012,08,31,17,38,19.30
2012,08,31,17,39,19.30